DLH9CX EDDM-EGPH

Flight info

Callsign DLH9CX
Flight time 1h 57m
Altitude 34000
Route INPUD3Q INPUD Y102 ALIBU DCT MASEK DCT MAPOX DCT DOMEG DCT MIMVA L602 NALAX L46 ESHIN N110 ERKIT DCT AGPED
Aircraft A321/M-SDE3FGHIRWY/LB1

Departure

Time 2026-05-06 16:34
Airport Munich Airport (EDDM)

Arrival

Time 2026-05-06 18:31
Airport Edinburgh Airport (EGPH)
Time Latitude Longitude Altitude Speed Heading
2026-05-06 15:37 48.35740 11.79268 1475 ft 0 kts 263°
2026-05-06 16:20 48.35740 11.79269 1475 ft 1 kts 263°
2026-05-06 16:20 48.35743 11.79305 1472 ft 4 kts 263°
2026-05-06 16:21 48.35746 11.79339 1480 ft 3 kts 263°
2026-05-06 16:21 48.35745 11.79377 1483 ft 4 kts 293°
2026-05-06 16:21 48.35730 11.79404 1473 ft 4 kts 342°
2026-05-06 16:21 48.35705 11.79411 1479 ft 4 kts 353°
2026-05-06 16:22 48.35699 11.79411 1483 ft 0 kts 353°
2026-05-06 16:25 48.35706 11.79410 1485 ft 2 kts 353°
2026-05-06 16:25 48.35745 11.79404 1481 ft 8 kts 353°
2026-05-06 16:26 48.35810 11.79392 1477 ft 10 kts 353°
2026-05-06 16:26 48.35887 11.79377 1474 ft 12 kts 345°
2026-05-06 16:26 48.35968 11.79338 1480 ft 10 kts 353°
2026-05-06 16:26 48.36028 11.79326 1473 ft 9 kts 353°
2026-05-06 16:27 48.36096 11.79314 1485 ft 11 kts 354°
2026-05-06 16:27 48.36178 11.79312 1478 ft 12 kts 22°
2026-05-06 16:27 48.36210 11.79431 1476 ft 14 kts 82°
2026-05-06 16:27 48.36222 11.79581 1471 ft 15 kts 83°
2026-05-06 16:28 48.36235 11.79747 1472 ft 17 kts 83°
2026-05-06 16:28 48.36249 11.79929 1480 ft 18 kts 83°
2026-05-06 16:28 48.36264 11.80127 1483 ft 20 kts 83°
2026-05-06 16:28 48.36281 11.80341 1472 ft 21 kts 83°
2026-05-06 16:29 48.36298 11.80569 1485 ft 23 kts 83°
2026-05-06 16:29 48.36316 11.80810 1478 ft 24 kts 83°
2026-05-06 16:29 48.36336 11.81061 1485 ft 25 kts 83°
2026-05-06 16:29 48.36356 11.81323 1477 ft 26 kts 83°
2026-05-06 16:30 48.36377 11.81596 1479 ft 27 kts 83°
2026-05-06 16:30 48.36388 11.81737 1475 ft 19 kts 83°
2026-05-06 16:30 48.36395 11.81935 1481 ft 11 kts 91°
2026-05-06 16:30 48.36444 11.82003 1478 ft 11 kts 360°
2026-05-06 16:31 48.36510 11.81992 1485 ft 9 kts 353°
2026-05-06 16:31 48.36579 11.81976 1485 ft 11 kts 352°
2026-05-06 16:31 48.36656 11.81957 1485 ft 8 kts 338°
2026-05-06 16:31 48.36671 11.81894 1482 ft 0 kts 265°
2026-05-06 16:33 48.36670 11.81871 1485 ft 10 kts 265°
2026-05-06 16:33 48.36631 11.81367 1486 ft 87 kts 263°
2026-05-06 16:34 48.36394 11.78288 1712 ft 185 kts 264°
2026-05-06 16:34 48.36263 11.76374 2513 ft 184 kts 264°
2026-05-06 16:34 48.36125 11.74427 3129 ft 194 kts 264°
2026-05-06 16:34 48.35967 11.72296 3423 ft 216 kts 264°
2026-05-06 16:35 48.35792 11.69945 3716 ft 235 kts 266°
2026-05-06 16:35 48.36045 11.67531 4281 ft 238 kts 297°
2026-05-06 16:35 48.37175 11.65720 4727 ft 249 kts 333°
2026-05-06 16:35 48.38894 11.64931 5094 ft 268 kts 348°
2026-05-06 16:36 48.40724 11.64394 5777 ft 274 kts 349°
2026-05-06 16:36 48.42633 11.63879 6533 ft 277 kts 350°
2026-05-06 16:36 48.44518 11.63369 7245 ft 281 kts 349°
2026-05-06 16:36 48.46455 11.62831 7982 ft 284 kts 349°
2026-05-06 16:37 48.48412 11.62277 8707 ft 288 kts 348°
2026-05-06 16:37 48.50383 11.61668 9393 ft 292 kts 343°
2026-05-06 16:37 48.52378 11.60681 9656 ft 313 kts 340°
2026-05-06 16:37 48.54496 11.59533 9854 ft 333 kts 339°
2026-05-06 16:38 48.56699 11.58300 10364 ft 341 kts 339°
2026-05-06 16:38 48.58948 11.57035 10895 ft 349 kts 338°
2026-05-06 16:38 48.61239 11.55748 11482 ft 354 kts 338°
2026-05-06 16:38 48.63536 11.54468 12075 ft 359 kts 338°
2026-05-06 16:39 48.65892 11.53163 12690 ft 362 kts 338°
2026-05-06 16:39 48.68271 11.51850 13292 ft 366 kts 337°
2026-05-06 16:39 48.70672 11.50526 13890 ft 369 kts 337°
2026-05-06 16:39 48.73074 11.49123 14469 ft 371 kts 330°
2026-05-06 16:40 48.75246 11.47042 15033 ft 370 kts 321°
2026-05-06 16:40 48.77368 11.44798 15631 ft 373 kts 321°
2026-05-06 16:40 48.79502 11.42528 16199 ft 376 kts 321°
2026-05-06 16:40 48.81648 11.40237 16754 ft 379 kts 320°
2026-05-06 16:41 48.83820 11.37917 17298 ft 382 kts 320°
2026-05-06 16:41 48.86003 11.35584 17821 ft 385 kts 320°
2026-05-06 16:41 48.88197 11.33235 18335 ft 388 kts 320°
2026-05-06 16:41 48.89668 11.31661 18671 ft 390 kts 320°
2026-05-06 16:42 48.91887 11.29285 19185 ft 393 kts 320°
2026-05-06 16:42 48.94137 11.26875 19691 ft 396 kts 320°
2026-05-06 16:42 48.96400 11.24454 20166 ft 398 kts 320°
2026-05-06 16:42 48.98671 11.22022 20622 ft 401 kts 320°
2026-05-06 16:43 49.00951 11.19576 21073 ft 403 kts 320°
2026-05-06 16:43 49.03246 11.17105 21514 ft 405 kts 320°
2026-05-06 16:43 49.05558 11.14607 21944 ft 408 kts 320°
2026-05-06 16:43 49.07875 11.12104 22360 ft 410 kts 320°
2026-05-06 16:44 49.10219 11.09571 22757 ft 413 kts 320°
2026-05-06 16:44 49.12564 11.07033 23149 ft 415 kts 320°
2026-05-06 16:44 49.14927 11.04475 23558 ft 418 kts 320°
2026-05-06 16:44 49.17307 11.01911 23969 ft 419 kts 320°
2026-05-06 16:45 49.19703 10.99341 24352 ft 422 kts 320°
2026-05-06 16:45 49.22111 10.96763 24734 ft 424 kts 320°
2026-05-06 16:45 49.24522 10.94179 25099 ft 427 kts 320°
2026-05-06 16:45 49.26972 10.91549 25454 ft 429 kts 320°
2026-05-06 16:46 49.29428 10.88906 25826 ft 432 kts 320°
2026-05-06 16:46 49.31885 10.86257 26162 ft 434 kts 320°
2026-05-06 16:46 49.34361 10.83579 26512 ft 436 kts 320°
2026-05-06 16:46 49.36846 10.80885 26832 ft 439 kts 320°
2026-05-06 16:47 49.39347 10.78172 27164 ft 441 kts 320°
2026-05-06 16:47 49.41859 10.75447 27470 ft 443 kts 320°
2026-05-06 16:47 49.44384 10.72704 27780 ft 446 kts 320°
2026-05-06 16:47 49.46927 10.69943 28089 ft 448 kts 320°
2026-05-06 16:48 49.49481 10.67164 28389 ft 451 kts 319°
2026-05-06 16:48 49.52040 10.64373 28677 ft 453 kts 320°
2026-05-06 16:48 49.54595 10.61579 28981 ft 456 kts 319°
2026-05-06 16:48 49.57181 10.58748 29267 ft 458 kts 319°
2026-05-06 16:49 49.59792 10.55885 29411 ft 463 kts 319°
2026-05-06 16:49 49.62437 10.52981 29537 ft 469 kts 319°
2026-05-06 16:49 49.65103 10.50051 29693 ft 473 kts 320°
2026-05-06 16:49 49.67791 10.47096 29934 ft 474 kts 320°
2026-05-06 16:50 49.70480 10.44139 30215 ft 475 kts 320°
2026-05-06 16:50 49.73170 10.41180 30514 ft 475 kts 319°
2026-05-06 16:50 49.75853 10.38226 30843 ft 473 kts 319°
2026-05-06 16:50 49.78569 10.35225 31173 ft 472 kts 319°
2026-05-06 16:51 49.81239 10.32267 31488 ft 471 kts 319°
2026-05-06 16:51 49.83859 10.29359 31806 ft 470 kts 319°
2026-05-06 16:51 49.86511 10.26409 32125 ft 468 kts 319°
2026-05-06 16:51 49.89153 10.23472 32426 ft 467 kts 319°
2026-05-06 16:52 49.91773 10.20513 32712 ft 463 kts 314°
2026-05-06 16:52 49.94167 10.17226 33007 ft 459 kts 311°
2026-05-06 16:52 49.96520 10.13901 33296 ft 457 kts 311°
2026-05-06 16:52 49.98863 10.10571 33591 ft 455 kts 311°
2026-05-06 16:53 50.01191 10.07257 33897 ft 453 kts 310°
2026-05-06 16:53 50.03506 10.03956 34266 ft 449 kts 310°
2026-05-06 16:53 50.05804 10.00686 34639 ft 446 kts 311°
2026-05-06 16:53 50.08095 9.97460 35014 ft 443 kts 311°
2026-05-06 16:54 50.10382 9.94262 35324 ft 442 kts 311°
2026-05-06 16:54 50.12671 9.91066 35575 ft 442 kts 311°
2026-05-06 16:54 50.14956 9.87865 35753 ft 444 kts 311°
2026-05-06 16:55 50.19584 9.81333 35805 ft 454 kts 312°
2026-05-06 16:55 50.24297 9.74668 35803 ft 459 kts 312°
2026-05-06 16:56 50.29038 9.67963 35804 ft 460 kts 312°
2026-05-06 16:56 50.33777 9.61247 35804 ft 460 kts 312°
2026-05-06 16:57 50.38506 9.54506 35805 ft 460 kts 312°
2026-05-06 16:57 50.43225 9.47764 36029 ft 459 kts 312°
2026-05-06 16:57 50.45582 9.44391 36177 ft 459 kts 312°
2026-05-06 16:58 50.47946 9.41003 36337 ft 460 kts 313°
2026-05-06 16:58 50.50312 9.37609 36476 ft 460 kts 313°
2026-05-06 16:58 50.52676 9.34214 36627 ft 460 kts 313°
2026-05-06 16:58 50.55031 9.30822 36776 ft 460 kts 313°
2026-05-06 16:59 50.57391 9.27417 36812 ft 459 kts 313°
2026-05-06 16:59 50.62083 9.20642 36813 ft 457 kts 313°
2026-05-06 17:00 50.66750 9.13878 36814 ft 454 kts 313°
2026-05-06 17:00 50.71380 9.07147 36816 ft 452 kts 313°
2026-05-06 17:01 50.76000 9.00414 36814 ft 452 kts 313°
2026-05-06 17:01 50.80619 8.93652 36834 ft 453 kts 313°
2026-05-06 17:02 50.85243 8.86883 36832 ft 454 kts 313°
2026-05-06 17:02 50.89873 8.80080 36829 ft 454 kts 313°
2026-05-06 17:03 50.94504 8.73247 36835 ft 455 kts 313°
2026-05-06 17:03 50.99131 8.66408 36841 ft 455 kts 313°
2026-05-06 17:04 51.03755 8.59560 36839 ft 454 kts 313°
2026-05-06 17:04 51.08398 8.52739 36843 ft 454 kts 313°
2026-05-06 17:05 51.13038 8.45913 36849 ft 454 kts 313°
2026-05-06 17:05 51.17665 8.39062 36851 ft 454 kts 313°
2026-05-06 17:06 51.22260 8.32223 36854 ft 454 kts 313°
2026-05-06 17:06 51.26880 8.25348 36855 ft 454 kts 313°
2026-05-06 17:07 51.31521 8.18428 36859 ft 454 kts 313°
2026-05-06 17:07 51.36102 8.11569 36861 ft 453 kts 313°
2026-05-06 17:08 51.40698 8.04662 36862 ft 453 kts 313°
2026-05-06 17:08 51.42861 8.01030 36865 ft 448 kts 302°
2026-05-06 17:08 51.44453 7.96791 36868 ft 443 kts 294°
2026-05-06 17:09 51.47296 7.88018 36872 ft 443 kts 294°
2026-05-06 17:09 51.50109 7.79211 36874 ft 444 kts 294°
2026-05-06 17:10 51.52924 7.70388 36879 ft 444 kts 294°
2026-05-06 17:10 51.55742 7.61531 36889 ft 445 kts 294°
2026-05-06 17:11 51.58547 7.52682 36886 ft 445 kts 293°
2026-05-06 17:11 51.61367 7.43816 36893 ft 445 kts 294°
2026-05-06 17:12 51.64239 7.34983 36899 ft 446 kts 294°
2026-05-06 17:12 51.67116 7.26138 36896 ft 446 kts 294°
2026-05-06 17:13 51.69983 7.17266 36900 ft 446 kts 294°
2026-05-06 17:13 51.72834 7.08384 36900 ft 446 kts 294°
2026-05-06 17:14 51.75676 6.99498 36909 ft 446 kts 294°
2026-05-06 17:14 51.78514 6.90598 36918 ft 446 kts 294°
2026-05-06 17:15 51.81346 6.81696 36904 ft 446 kts 294°
2026-05-06 17:15 51.84169 6.72766 36923 ft 445 kts 294°
2026-05-06 17:16 51.86983 6.63834 36929 ft 445 kts 294°
2026-05-06 17:16 51.89783 6.54901 36924 ft 445 kts 294°
2026-05-06 17:17 51.92581 6.45959 36931 ft 445 kts 294°
2026-05-06 17:17 51.95368 6.37003 36930 ft 445 kts 294°
2026-05-06 17:18 51.98156 6.28027 36933 ft 445 kts 294°
2026-05-06 17:18 52.00932 6.19062 36937 ft 445 kts 294°
2026-05-06 17:19 52.03706 6.10081 36941 ft 445 kts 294°
2026-05-06 17:19 52.06451 6.01146 36941 ft 445 kts 294°
2026-05-06 17:20 52.09225 5.92087 36941 ft 445 kts 294°
2026-05-06 17:20 52.11958 5.83137 36945 ft 444 kts 294°
2026-05-06 17:21 52.14707 5.74081 36942 ft 444 kts 294°
2026-05-06 17:21 52.17412 5.65137 36940 ft 444 kts 294°
2026-05-06 17:22 52.20134 5.56119 36940 ft 444 kts 294°
2026-05-06 17:22 52.22847 5.47081 36941 ft 445 kts 294°
2026-05-06 17:23 52.25558 5.38017 36943 ft 444 kts 293°
2026-05-06 17:23 52.28256 5.28954 36948 ft 443 kts 293°
2026-05-06 17:24 52.30951 5.19897 36948 ft 443 kts 293°
2026-05-06 17:24 52.33632 5.10862 36948 ft 443 kts 293°
2026-05-06 17:25 52.36313 5.01764 36950 ft 443 kts 293°
2026-05-06 17:25 52.38974 4.92676 36950 ft 443 kts 293°
2026-05-06 17:26 52.41634 4.83586 36953 ft 443 kts 293°
2026-05-06 17:26 52.43844 4.76022 36953 ft 443 kts 293°
2026-05-06 17:27 52.46505 4.66853 36951 ft 443 kts 293°
2026-05-06 17:27 52.49120 4.57786 36952 ft 442 kts 293°
2026-05-06 17:28 52.51745 4.48665 36950 ft 442 kts 293°
2026-05-06 17:28 52.54368 4.39545 36954 ft 442 kts 293°
2026-05-06 17:29 52.56994 4.30406 36958 ft 442 kts 293°
2026-05-06 17:29 52.59599 4.21253 36961 ft 442 kts 292°
2026-05-06 17:30 52.62194 4.12094 36965 ft 442 kts 292°
2026-05-06 17:30 52.64790 4.02929 36969 ft 441 kts 292°
2026-05-06 17:31 52.67375 3.93768 36975 ft 441 kts 292°
2026-05-06 17:31 52.69769 3.84462 36984 ft 440 kts 289°
2026-05-06 17:32 52.71898 3.75004 36988 ft 440 kts 288°
2026-05-06 17:32 52.74007 3.65525 36994 ft 440 kts 288°
2026-05-06 17:33 52.76176 3.56101 36997 ft 440 kts 289°
2026-05-06 17:33 52.78362 3.46668 37003 ft 439 kts 289°
2026-05-06 17:34 52.80535 3.37232 37003 ft 439 kts 289°
2026-05-06 17:34 52.82683 3.27787 37003 ft 439 kts 288°
2026-05-06 17:35 52.84816 3.18337 37002 ft 438 kts 288°
2026-05-06 17:35 52.86945 3.08891 37002 ft 438 kts 288°
2026-05-06 17:36 52.90148 2.94717 37003 ft 438 kts 288°
2026-05-06 17:36 52.92274 2.85265 37004 ft 438 kts 288°
2026-05-06 17:37 52.94378 2.75842 37003 ft 438 kts 288°
2026-05-06 17:37 52.96481 2.66369 37004 ft 438 kts 288°
2026-05-06 17:38 52.98574 2.56888 37003 ft 437 kts 288°
2026-05-06 17:38 53.00662 2.47425 37003 ft 437 kts 288°
2026-05-06 17:39 53.02742 2.37932 37008 ft 437 kts 288°
2026-05-06 17:39 53.04815 2.28434 37011 ft 437 kts 288°
2026-05-06 17:40 53.06887 2.18927 37012 ft 438 kts 288°
2026-05-06 17:40 53.08941 2.09396 37014 ft 438 kts 288°
2026-05-06 17:41 53.10993 1.99863 37033 ft 437 kts 288°
2026-05-06 17:41 53.13041 1.90321 37036 ft 437 kts 288°
2026-05-06 17:42 53.15076 1.80800 37036 ft 437 kts 288°
2026-05-06 17:42 53.17113 1.71256 37040 ft 437 kts 288°
2026-05-06 17:43 53.19129 1.61710 37034 ft 436 kts 287°
2026-05-06 17:43 53.21122 1.52166 37037 ft 436 kts 287°
2026-05-06 17:44 53.23119 1.42609 37032 ft 436 kts 287°
2026-05-06 17:44 53.25114 1.33055 37033 ft 436 kts 287°
2026-05-06 17:45 53.27099 1.23491 37029 ft 436 kts 287°
2026-05-06 17:45 53.29062 1.13975 37043 ft 436 kts 287°
2026-05-06 17:46 53.31048 1.04316 37045 ft 436 kts 287°
2026-05-06 17:46 53.32997 0.94793 37044 ft 436 kts 287°
2026-05-06 17:47 53.34949 0.85192 37046 ft 436 kts 287°
2026-05-06 17:47 53.36893 0.75592 37050 ft 435 kts 287°
2026-05-06 17:48 53.38825 0.66016 37048 ft 435 kts 287°
2026-05-06 17:48 53.40750 0.56409 37055 ft 435 kts 287°
2026-05-06 17:49 53.42660 0.46800 37061 ft 434 kts 286°
2026-05-06 17:49 53.44565 0.37194 37062 ft 434 kts 287°
2026-05-06 17:50 53.46470 0.27575 37062 ft 434 kts 286°
2026-05-06 17:50 53.48365 0.17965 37072 ft 434 kts 286°
2026-05-06 17:51 53.50238 0.08352 37075 ft 433 kts 286°
2026-05-06 17:51 53.52111 -0.01276 37079 ft 433 kts 286°
2026-05-06 17:52 53.53972 -0.10900 37078 ft 433 kts 286°
2026-05-06 17:52 53.55809 -0.20523 37074 ft 432 kts 287°
2026-05-06 17:53 53.58578 -0.29501 37074 ft 436 kts 306°
2026-05-06 17:53 53.63022 -0.36458 37073 ft 441 kts 323°
2026-05-06 17:54 53.68090 -0.42272 37072 ft 441 kts 323°
2026-05-06 17:54 53.73198 -0.48014 37075 ft 441 kts 326°
2026-05-06 17:55 53.78458 -0.53345 37075 ft 444 kts 327°
2026-05-06 17:55 53.83794 -0.58621 37078 ft 444 kts 327°
2026-05-06 17:56 53.89133 -0.64018 37077 ft 443 kts 326°
2026-05-06 17:56 53.94372 -0.69422 37076 ft 443 kts 326°
2026-05-06 17:57 53.99669 -0.74912 37079 ft 444 kts 326°
2026-05-06 17:57 54.04909 -0.80323 36880 ft 441 kts 326°
2026-05-06 17:58 54.07516 -0.83011 36630 ft 435 kts 326°
2026-05-06 17:58 54.10086 -0.85666 36378 ft 429 kts 326°
2026-05-06 17:58 54.12632 -0.88300 36120 ft 427 kts 326°
2026-05-06 17:58 54.15161 -0.90929 35867 ft 427 kts 325°
2026-05-06 17:59 54.17491 -0.94008 35636 ft 423 kts 313°
2026-05-06 17:59 54.19571 -0.97571 35379 ft 425 kts 312°
2026-05-06 17:59 54.21655 -1.01170 35125 ft 426 kts 312°
2026-05-06 17:59 54.23722 -1.04767 34883 ft 425 kts 312°
2026-05-06 18:00 54.25788 -1.08379 34628 ft 423 kts 312°
2026-05-06 18:00 54.27835 -1.11966 34379 ft 420 kts 312°
2026-05-06 18:00 54.29873 -1.15536 34128 ft 418 kts 312°
2026-05-06 18:00 54.31900 -1.19086 33880 ft 416 kts 312°
2026-05-06 18:01 54.33920 -1.22618 33629 ft 414 kts 312°
2026-05-06 18:01 54.35927 -1.26126 33377 ft 411 kts 312°
2026-05-06 18:01 54.37923 -1.29622 33126 ft 409 kts 312°
2026-05-06 18:01 54.39908 -1.33103 32872 ft 407 kts 312°
2026-05-06 18:02 54.41887 -1.36579 32620 ft 405 kts 312°
2026-05-06 18:02 54.43843 -1.40034 32376 ft 401 kts 313°
2026-05-06 18:02 54.45778 -1.43463 32128 ft 397 kts 314°
2026-05-06 18:02 54.47687 -1.46851 31874 ft 394 kts 314°
2026-05-06 18:03 54.49596 -1.50239 31622 ft 393 kts 314°
2026-05-06 18:03 54.51490 -1.53605 31373 ft 391 kts 314°
2026-05-06 18:03 54.53386 -1.56976 30846 ft 391 kts 314°
2026-05-06 18:03 54.55273 -1.60340 30222 ft 391 kts 314°
2026-05-06 18:04 54.57158 -1.63705 29602 ft 390 kts 314°
2026-05-06 18:04 54.59042 -1.67076 28980 ft 389 kts 314°
2026-05-06 18:04 54.60919 -1.70434 28347 ft 388 kts 313°
2026-05-06 18:04 54.62788 -1.73773 27713 ft 387 kts 313°
2026-05-06 18:05 54.64651 -1.77104 27094 ft 385 kts 313°
2026-05-06 18:05 54.66511 -1.80438 26469 ft 384 kts 313°
2026-05-06 18:05 54.68359 -1.83756 25842 ft 383 kts 313°
2026-05-06 18:05 54.70195 -1.87061 25219 ft 381 kts 313°
2026-05-06 18:06 54.72024 -1.90363 24586 ft 380 kts 312°
2026-05-06 18:06 54.73847 -1.93658 23966 ft 378 kts 312°
2026-05-06 18:06 54.75661 -1.96944 23338 ft 376 kts 312°
2026-05-06 18:06 54.77451 -2.00194 22717 ft 374 kts 312°
2026-05-06 18:07 54.79232 -2.03426 22093 ft 373 kts 312°
2026-05-06 18:07 54.81023 -2.06674 21468 ft 372 kts 312°
2026-05-06 18:07 54.82804 -2.09908 20840 ft 370 kts 312°
2026-05-06 18:07 54.84576 -2.13124 20213 ft 367 kts 312°
2026-05-06 18:08 54.86332 -2.16322 19583 ft 365 kts 312°
2026-05-06 18:08 54.88074 -2.19509 18953 ft 363 kts 311°
2026-05-06 18:08 54.89804 -2.22680 18328 ft 361 kts 311°
2026-05-06 18:08 54.91524 -2.25828 17712 ft 358 kts 311°
2026-05-06 18:09 54.93233 -2.28955 17082 ft 356 kts 311°
2026-05-06 18:09 54.94932 -2.32072 16443 ft 353 kts 311°
2026-05-06 18:09 54.96613 -2.35162 15816 ft 351 kts 312°
2026-05-06 18:09 54.98285 -2.38236 15199 ft 349 kts 312°
2026-05-06 18:10 54.99948 -2.41299 14573 ft 346 kts 312°
2026-05-06 18:10 55.01595 -2.44333 13950 ft 345 kts 312°
2026-05-06 18:10 55.03224 -2.47340 13545 ft 336 kts 311°
2026-05-06 18:10 55.04803 -2.50259 13171 ft 327 kts 311°
2026-05-06 18:11 55.06341 -2.53108 12794 ft 319 kts 311°
2026-05-06 18:11 55.07342 -2.54963 12547 ft 314 kts 311°
2026-05-06 18:11 55.09311 -2.58616 12162 ft 309 kts 311°
2026-05-06 18:11 55.10814 -2.61416 11881 ft 320 kts 311°
2026-05-06 18:12 55.12340 -2.64261 11608 ft 321 kts 311°
2026-05-06 18:12 55.13862 -2.67099 11330 ft 320 kts 312°
2026-05-06 18:12 55.15386 -2.69942 11061 ft 319 kts 311°
2026-05-06 18:12 55.16901 -2.72770 10779 ft 318 kts 312°
2026-05-06 18:13 55.18410 -2.75590 10507 ft 317 kts 312°
2026-05-06 18:13 55.19408 -2.77456 10323 ft 316 kts 311°
2026-05-06 18:13 55.20905 -2.80265 10048 ft 315 kts 311°
2026-05-06 18:13 55.22392 -2.83056 9830 ft 309 kts 312°
2026-05-06 18:14 55.23827 -2.85748 9620 ft 296 kts 311°
2026-05-06 18:14 55.25211 -2.88344 9422 ft 285 kts 311°
2026-05-06 18:14 55.26550 -2.90856 9223 ft 280 kts 311°
2026-05-06 18:14 55.27871 -2.93344 9027 ft 279 kts 311°
2026-05-06 18:15 55.29191 -2.95837 8815 ft 278 kts 311°
2026-05-06 18:15 55.30507 -2.98325 8621 ft 278 kts 311°
2026-05-06 18:15 55.31817 -3.00801 8426 ft 277 kts 311°
2026-05-06 18:15 55.33130 -3.03284 8219 ft 277 kts 311°
2026-05-06 18:16 55.34437 -3.05759 8018 ft 276 kts 311°
2026-05-06 18:16 55.35741 -3.08233 7815 ft 275 kts 311°
2026-05-06 18:16 55.37039 -3.10696 7617 ft 275 kts 311°
2026-05-06 18:16 55.38339 -3.13163 7416 ft 274 kts 311°
2026-05-06 18:17 55.39635 -3.15609 7220 ft 274 kts 311°
2026-05-06 18:17 55.40934 -3.18055 7022 ft 273 kts 311°
2026-05-06 18:17 55.42233 -3.20502 6890 ft 273 kts 311°
2026-05-06 18:17 55.43526 -3.22939 6764 ft 273 kts 311°
2026-05-06 18:18 55.44821 -3.25385 6634 ft 273 kts 311°
2026-05-06 18:18 55.46113 -3.27823 6513 ft 272 kts 311°
2026-05-06 18:18 55.47405 -3.30263 6388 ft 271 kts 311°
2026-05-06 18:18 55.48692 -3.32693 6261 ft 271 kts 311°
2026-05-06 18:19 55.49974 -3.35119 6137 ft 271 kts 312°
2026-05-06 18:19 55.51261 -3.37555 6013 ft 270 kts 311°
2026-05-06 18:19 55.52541 -3.39982 5891 ft 270 kts 311°
2026-05-06 18:19 55.53824 -3.42414 5758 ft 270 kts 311°
2026-05-06 18:20 55.55103 -3.44841 5633 ft 270 kts 311°
2026-05-06 18:20 55.56387 -3.47268 5506 ft 270 kts 311°
2026-05-06 18:20 55.57666 -3.49683 5377 ft 267 kts 312°
2026-05-06 18:20 55.58890 -3.52006 5253 ft 256 kts 311°
2026-05-06 18:21 55.60074 -3.54262 5133 ft 244 kts 311°
2026-05-06 18:21 55.61213 -3.56444 5022 ft 234 kts 311°
2026-05-06 18:21 55.62292 -3.58531 4963 ft 229 kts 310°
2026-05-06 18:21 55.63353 -3.60625 4863 ft 233 kts 310°
2026-05-06 18:22 55.64452 -3.62801 4792 ft 234 kts 312°
2026-05-06 18:22 55.65585 -3.64851 4681 ft 237 kts 314°
2026-05-06 18:22 55.66761 -3.66898 4625 ft 238 kts 315°
2026-05-06 18:22 55.67934 -3.68884 4555 ft 225 kts 315°
2026-05-06 18:23 55.69021 -3.70740 4483 ft 209 kts 312°
2026-05-06 18:23 55.70000 -3.72526 4344 ft 198 kts 313°
2026-05-06 18:23 55.70959 -3.74231 4210 ft 195 kts 313°
2026-05-06 18:23 55.71914 -3.75950 4162 ft 196 kts 313°
2026-05-06 18:24 55.72908 -3.77600 4112 ft 196 kts 324°
2026-05-06 18:24 55.74158 -3.78498 4095 ft 194 kts 350°
2026-05-06 18:24 55.75490 -3.78849 4067 ft 192 kts 354°
2026-05-06 18:24 55.76805 -3.78599 4030 ft 192 kts 18°
2026-05-06 18:25 55.78086 -3.77850 4003 ft 194 kts 19°
2026-05-06 18:25 55.79363 -3.77081 4036 ft 194 kts 21°
2026-05-06 18:25 55.80553 -3.76063 4057 ft 192 kts 33°
2026-05-06 18:25 55.81676 -3.74688 4041 ft 194 kts 39°
2026-05-06 18:26 55.82658 -3.73054 4035 ft 195 kts 49°
2026-05-06 18:26 55.83466 -3.71124 4023 ft 195 kts 60°
2026-05-06 18:26 55.84117 -3.69046 3965 ft 191 kts 64°
2026-05-06 18:26 55.84758 -3.66967 3831 ft 192 kts 62°
2026-05-06 18:27 55.85452 -3.64948 3627 ft 191 kts 59°
2026-05-06 18:27 55.86176 -3.63033 3394 ft 187 kts 58°
2026-05-06 18:27 55.86876 -3.61123 3147 ft 182 kts 60°
2026-05-06 18:27 55.87531 -3.59211 2872 ft 180 kts 62°
2026-05-06 18:28 55.88169 -3.57326 2601 ft 173 kts 60°
2026-05-06 18:28 55.88788 -3.55533 2355 ft 160 kts 60°
2026-05-06 18:28 55.89335 -3.53952 2135 ft 146 kts 60°
2026-05-06 18:28 55.89846 -3.52435 1862 ft 144 kts 61°
2026-05-06 18:29 55.90347 -3.50914 1683 ft 140 kts 60°
2026-05-06 18:29 55.90839 -3.49447 1476 ft 136 kts 59°
2026-05-06 18:29 55.91329 -3.48018 1320 ft 134 kts 59°
2026-05-06 18:29 55.91825 -3.46622 1166 ft 133 kts 58°
2026-05-06 18:30 55.92302 -3.45205 1000 ft 133 kts 60°
2026-05-06 18:30 55.92782 -3.43806 818 ft 134 kts 60°
2026-05-06 18:30 55.93255 -3.42381 646 ft 134 kts 60°
2026-05-06 18:30 55.93730 -3.40971 457 ft 134 kts 59°
2026-05-06 18:31 55.94216 -3.39544 272 ft 135 kts 59°
2026-05-06 18:31 55.94699 -3.38134 115 ft 128 kts 61°
2026-05-06 18:31 55.95083 -3.37004 114 ft 69 kts 58°
2026-05-06 18:31 55.95216 -3.36609 113 ft 26 kts 59°
2026-05-06 18:32 55.95253 -3.36433 110 ft 11 kts 118°
2026-05-06 18:32 55.95217 -3.36378 114 ft 5 kts 147°
2026-05-06 18:32 55.95194 -3.36353 113 ft 4 kts 150°
2026-05-06 18:32 55.95167 -3.36324 114 ft 6 kts 149°
2026-05-06 18:33 55.95121 -3.36335 115 ft 9 kts 228°
2026-05-06 18:33 55.95086 -3.36399 114 ft 8 kts 203°
2026-05-06 18:33 55.95048 -3.36388 115 ft 5 kts 167°
2026-05-06 18:33 55.95019 -3.36399 113 ft 5 kts 195°
2026-05-06 18:34 55.94998 -3.36444 116 ft 3 kts 238°
2026-05-06 18:34 55.94982 -3.36479 115 ft 4 kts 213°
2026-05-06 18:34 55.94953 -3.36466 113 ft 2 kts 151°
2026-05-06 18:34 55.94938 -3.36450 112 ft 2 kts 149°
2026-05-06 18:35 55.94926 -3.36437 116 ft 2 kts 149°
2026-05-06 18:35 55.94924 -3.36434 116 ft 0 kts 148°